Estación de Hornitos

Ultimos registro cada 15 minutos 26
Estación Fecha / Hora Temperatura Humedad Lluvia Velocidad Dirección Radiación Presion
26 Hornitos 10-05-2026 06:15 5,2 61 0 0 231 0 1010,9
25 Hornitos 10-05-2026 06:00 5,3 64 0 0,9 179 0 1010,7
24 Hornitos 10-05-2026 05:45 5,6 64 0 0,4 131 0 1010,7
23 Hornitos 10-05-2026 05:30 5,7 65 0 0,4 212 0 1010,8
22 Hornitos 10-05-2026 05:15 5,7 68 0 0 220 0 1010,7
21 Hornitos 10-05-2026 05:00 4,9 68 0 0,9 254 0 1010,8
20 Hornitos 10-05-2026 04:45 4,9 69 0 0 154 0 1010,8
19 Hornitos 10-05-2026 04:30 4,7 70 0 0 174 0 1010,7
18 Hornitos 10-05-2026 04:15 4,7 70 0 0 226 0 1010,7
17 Hornitos 10-05-2026 04:00 4,8 70 0 0 226 0 1010,7
16 Hornitos 10-05-2026 03:45 5,2 70 0 0 226 0 1010,8
15 Hornitos 10-05-2026 03:30 5,2 70 0 0 190 0 1010,7
14 Hornitos 10-05-2026 03:15 5,4 71 0 0 212 0 1010,8
13 Hornitos 10-05-2026 03:00 5,4 71 0 0 212 0 1011,2
12 Hornitos 10-05-2026 02:45 5,5 71 0 0 212 0 1011,3
11 Hornitos 10-05-2026 02:30 5,7 72 0 0 212 0 1011,4
10 Hornitos 10-05-2026 02:15 5,8 71 0 0 212 0 1011,5
9 Hornitos 10-05-2026 02:00 5,8 71 0 0 212 0 1011,7
8 Hornitos 10-05-2026 01:45 5,9 71 0 0 218 0 1011,8
7 Hornitos 10-05-2026 01:30 6,2 72 0 0 218 0 1011,9
6 Hornitos 10-05-2026 01:15 5,9 71 0 0 218 0 1012,1
5 Hornitos 10-05-2026 01:00 6,1 71 0 0 217 0 1012,2
4 Hornitos 10-05-2026 00:45 6,3 71 0 0 217 0 1012,3
3 Hornitos 10-05-2026 00:30 6,1 70 0 0 218 0 1012,5
2 Hornitos 10-05-2026 00:15 6,3 70 0 0 217 0 1012,4
1 Hornitos 10-05-2026 00:00 6,4 69 0 0 217 0 1012,4